Regional Weather Roundup
Issued by NWS

Home | Current Version | Previous Version | Text Only | Print | Product List | Glossary On
Versions: 1 2 3 4 5 6 7 8 9 10 11 12 13 14 15 16 17 18 19 20 21 22 23 24 25 26 27 28 29 30 31 32 33 34 35 36 37 38 39 40 41 42 43 44 45 46 47 48 49 50
000
ASUS43 KBIS 101302
RWRND

NORTH DAKOTA REGIONAL WEATHER ROUNDUP
NATIONAL WEATHER SERVICE BISMARCK ND
700 AM CST SAT DEC 10 2016

NOTE: "FAIR" INDICATES FEW OR NO CLOUDS BELOW 12,000 FEET WITH NO
SIGNIFICANT WEATHER AND/OR OBSTRUCTIONS TO VISIBILITY.


NDZ001>003-009>011-017-101400-
NORTHWEST NORTH DAKOTA

CITY           SKY/WX    TMP DP  RH WIND       PRES   REMARKS
WILLISTON      CLOUDY   -10 -16  74 NE7       30.24F WCI -25
MINOT          CLOUDY   -20 -24  82 S3        30.33F
MINOT AFB      CLOUDY   -24 -30  75 S3        30.33F
$$

NDZ018>021-031>035-040>046-101400-
SOUTHWEST NORTH DAKOTA

CITY           SKY/WX    TMP DP  RH WIND       PRES   REMARKS
BISMARCK       CLOUDY   -16 -20  82 E7        30.36F FOG     WCI -32
DICKINSON      CLOUDY    -7 -12  79 SE10      30.13F WCI -25
GARRISON         N/A    -12 -15  86 E6        30.30F WCI -26
HETTINGER ARPT CLOUDY    -6 -10  83 SE12      30.16F FOG     WCI -25
$$

NDZ004>008-012>016-024-026-027-054-101400-
NORTHEAST NORTH DAKOTA

CITY           SKY/WX    TMP DP  RH WIND       PRES   REMARKS
GRAND FORKS    CLOUDY    -5 -11  75 NW3       30.51F
GRND FRKS AFB  CLOUDY   -13 -19  75 W3        30.50F
DEVILS LAKE    FLURRIES -17 -21  82 CALM      30.41F
$$

NDZ022-023-025-028>030-036>039-047>053-101400-
SOUTHEAST NORTH DAKOTA

CITY           SKY/WX    TMP DP  RH WIND       PRES   REMARKS
FARGO          CLOUDY    -6 -12  75 CALM      30.51F
JAMESTOWN      CLOUDY   -14 -19  79 CALM      30.40F
$$





USA.gov is the U.S. government's official web portal to all federal, state and local government web resources and services.